Johnstown, PA

1:47 PM EDT on April 26, 2017 (GMT -0400)
Johnstown-Cambria County

Weather History for KJST - September, 2014

Change the Weather History Date:

Saturday, September 6, 2014

  Actual Average Record
Temperature  
Mean Temperature 69 °F 64 °F  
Max Temperature 80 °F 72 °F 97 °F (1913)
Min Temperature 58 °F 55 °F 39 °F (1957)
Degree Days  
Heating Degree Days 0 3  
Month to date heating degree days 0 15  
Since 1 July heating degree days 83 57  
Cooling Degree Days 4 2  
Month to date cooling degree days 42 12  
Year to date cooling degree days 337 372  
Growing Degree Days 18 (Base 50)    
Moisture  
Dew Point 63 °F    
Average Humidity 78    
Maximum Humidity 93    
Minimum Humidity 62    
Precipitation  
Precipitation 0.10 in 0.11 in 1.94 in (2011)
Month to date precipitation 0.39 0.68  
Year to date precipitation 26.29 24.97  
Sea Level Pressure  
Sea Level Pressure 30.04 in    
Wind  
Wind Speed 9 mph (WNW)    
Max Wind Speed 17 mph    
Max Gust Speed 23 mph    
Visibility 8 miles    
Events Rain , Thunderstorm    
T = Trace of Precipitation, MM = Missing Value Source: NWS Daily Summary

Daily Weather History Graph

Daily Weather History Graph

Search for Another Location

Airport or City:

Trip Planner

Search our weather history database for the weather conditions in past years. The results will help you decide how hot, cold, wet, or windy it might be!

Date:

Astronomy

Sep. 06, 2014 Rise Set
Actual Time 6:47 AM EDT 7:39 PM EDT
Civil Twilight 6:19 AM EDT 8:06 PM EDT
Nautical Twilight 5:47 AM EDT 8:39 PM EDT
Astronomical Twilight 5:12 AM EDT 9:13 PM EDT
Moon 5:54 PM EDT (9/6) 3:47 AM EDT (9/6)
Length of Visible Light 13h 46m
Length of Day
12h 51m
Waxing Gibbous, 91% of the Moon is Illuminated
Sep 6
Waxing Gibbous
Sep 8
Full
Sep 15
Last Quarter
Sep 24
New
Oct 1
First Quarter

Hourly Weather History & Observations

Time (EDT) Temp. Dew Point Humidity Pressure Visibility Wind Dir Wind Speed Gust Speed Precip Events Conditions
12:54 AM 71.1 °F 64.9 °F 81% 30.05 in 10.0 mi SW 8.1 mph - N/A   Clear
2:54 AM 70.0 °F 64.9 °F 84% 30.02 in 10.0 mi WSW 6.9 mph - N/A   Partly Cloudy
3:54 AM 69.1 °F 64.9 °F 87% 30.01 in 10.0 mi WSW 8.1 mph - N/A   Clear
4:54 AM 69.1 °F 66.0 °F 90% 30.01 in 8.0 mi WSW 8.1 mph - N/A   Partly Cloudy
5:18 AM 70.0 °F 66.0 °F 87% 30.05 in 10.0 mi West 9.2 mph - N/A   Overcast
5:34 AM 70.0 °F 66.0 °F 87% 30.06 in 9.0 mi NW 12.7 mph - N/A   Overcast
5:54 AM 69.1 °F 64.9 °F 87% 30.01 in 9.0 mi NNW 5.8 mph - 0.00 in Rain Light Rain
6:54 AM 66.9 °F 64.0 °F 90% 30.00 in 10.0 mi South 3.5 mph - 0.00 in   Clear
7:54 AM 69.1 °F 64.9 °F 87% 30.01 in 9.0 mi SSW 8.1 mph - N/A   Clear
8:32 AM 70.0 °F 66.0 °F 87% 30.05 in 6.0 mi SSW 8.1 mph - N/A   Partly Cloudy
8:47 AM 70.0 °F 66.9 °F 90% 30.05 in 6.0 mi SSW 10.4 mph - N/A   Mostly Cloudy
8:54 AM 70.0 °F 66.9 °F 90% 30.00 in 5.0 mi SSW 9.2 mph - N/A   Scattered Clouds
9:27 AM 71.1 °F 66.9 °F 87% 30.06 in 5.0 mi SW 10.4 mph - N/A   Mostly Cloudy
10:31 AM 73.0 °F 68.0 °F 84% 30.07 in 7.0 mi West 8.1 mph - 0.00 in Rain Light Rain
10:43 AM 73.9 °F 68.0 °F 82% 30.07 in 7.0 mi West 10.4 mph - 0.00 in Rain Light Rain
10:54 AM 73.9 °F 66.0 °F 76% 30.02 in 9.0 mi WNW 11.5 mph - 0.00 in   Mostly Cloudy
11:20 AM 75.0 °F 64.9 °F 71% 30.07 in 10.0 mi West 15.0 mph - N/A   Scattered Clouds
11:54 AM 75.9 °F 64.9 °F 69% 30.01 in 10.0 mi West 8.1 mph - N/A   Scattered Clouds
12:54 PM 78.1 °F 64.9 °F 64% 30.00 in 10.0 mi WNW 8.1 mph - N/A   Scattered Clouds
1:54 PM 77.0 °F 64.9 °F 66% 29.99 in 10.0 mi WNW 12.7 mph - N/A   Scattered Clouds
2:54 PM 73.0 °F 64.9 °F 76% 29.99 in 6.0 mi West 10.4 mph - 0.02 in Rain Rain
3:54 PM 73.9 °F 64.0 °F 71% 29.95 in 10.0 mi WSW 9.2 mph - 0.00 in   Partly Cloudy
4:26 PM 73.9 °F 64.9 °F 73% 29.97 in 10.0 mi WSW 12.7 mph - N/A Thunderstorm Mostly Cloudy
4:54 PM 73.9 °F 64.9 °F 73% 29.95 in 10.0 mi West 9.2 mph - N/A Thunderstorm Scattered Clouds
5:07 PM 71.1 °F 66.0 °F 84% 29.99 in 9.0 mi WNW 11.5 mph - 0.01 in Rain , Thunderstorm Light Thunderstorms and Rain
5:18 PM 69.1 °F 66.0 °F 90% 30.00 in 3.0 mi WNW 13.8 mph 19.6 mph 0.03 in Rain , Thunderstorm Heavy Thunderstorms and Rain
5:20 PM 69.1 °F 66.0 °F 90% 30.00 in 2.5 mi NW 11.5 mph 19.6 mph 0.05 in Rain , Thunderstorm Thunderstorms and Rain
5:23 PM 68.0 °F 66.0 °F 93% 30.01 in 1.8 mi NNW 13.8 mph - 0.08 in Rain Heavy Rain
5:26 PM 68.0 °F 66.0 °F 93% 30.01 in 1.8 mi NNW 17.3 mph 23.0 mph 0.08 in Rain , Thunderstorm Thunderstorms and Rain
5:30 PM 66.9 °F 64.9 °F 93% 30.02 in 2.0 mi NNW 16.1 mph - 0.08 in Rain , Thunderstorm Light Thunderstorms and Rain
5:32 PM 66.9 °F 64.9 °F 93% 30.02 in 3.0 mi NNW 15.0 mph - 0.08 in Rain , Thunderstorm Light Thunderstorms and Rain
5:43 PM 64.9 °F 63.0 °F 93% 30.03 in 8.0 mi NNW 13.8 mph - 0.08 in   Overcast
5:54 PM 64.9 °F 63.0 °F 93% 30.01 in 10.0 mi NW 10.4 mph - 0.08 in   Overcast
6:16 PM 64.0 °F 62.1 °F 93% 30.04 in 10.0 mi NNW 12.7 mph - N/A   Overcast
6:54 PM 63.0 °F 60.1 °F 90% 30.03 in 10.0 mi NW 12.7 mph - N/A   Overcast
7:54 PM 62.1 °F 57.9 °F 86% 30.05 in 10.0 mi NW 10.4 mph - N/A   Overcast
8:40 PM 60.1 °F 55.9 °F 86% 30.09 in 10.0 mi NW 10.4 mph - 0.00 in   Overcast
8:54 PM 60.1 °F 55.9 °F 86% 30.07 in 10.0 mi NW 9.2 mph - 0.00 in   Overcast
9:03 PM 60.1 °F 57.0 °F 90% 30.10 in 10.0 mi NNW 9.2 mph - 0.00 in Rain Light Rain
9:20 PM 59.0 °F 55.9 °F 90% 30.11 in 10.0 mi WNW 4.6 mph - 0.00 in Rain Light Rain
9:46 PM 57.9 °F 55.9 °F 93% 30.11 in 9.0 mi NNW 6.9 mph - 0.00 in Rain Light Rain
9:54 PM 57.9 °F 55.9 °F 93% 30.09 in 9.0 mi NNW 8.1 mph - 0.00 in Rain Light Rain
10:54 PM 57.9 °F 55.0 °F 90% 30.09 in 10.0 mi NW 5.8 mph - 0.00 in   Overcast
11:06 PM 57.9 °F 55.0 °F 90% 30.11 in 10.0 mi NNW 5.8 mph - N/A   Overcast
11:15 PM 57.9 °F 55.9 °F 93% 30.11 in 10.0 mi North 5.8 mph - N/A   Overcast
11:54 PM 57.9 °F 55.0 °F 90% 30.09 in 10.0 mi NW 8.1 mph - N/A   Overcast